Simultaneous Nadir Overpasses (SNOs) Predictions

Prediction of SNOs between NOAA-19 and TERRA Satellite Orbit:

Table of predicted SNOs for the next 14.0 days since TLE Epoch: 9/5/2020
Index Date (NOAA-19) Time (NOAA-19) Lat,Lon (NOAA-19) SZA (NOAA-19 ) Date (TERRA) Time (TERRA) Lat,Lon (TERRA) SZA (TERRA ) Distance(km) Time Diff (sec)
1 09/06/2020 01:07:15 -79.70, 12.73 105.27 09/06/2020 01:07:54 -79.71, 12.81 105.24 1.86 39
2 09/06/2020 01:58:19 79.67,-179.72 74.76 09/06/2020 01:57:21 79.68,-179.78 74.73 1.58 58
3 09/08/2020 06:40:36 79.71, 109.32 75.59 09/08/2020 06:41:38 79.68, 109.22 75.59 3.54 62
4 09/08/2020 07:31:30 -79.68, -83.06 104.39 09/08/2020 07:31:05 -79.68, -83.15 104.41 1.86 25
5 09/10/2020 13:04:51 79.69, 13.58 76.48 09/10/2020 13:04:48 79.69, 13.50 76.47 1.82 3
6 09/12/2020 18:38:02 -79.72, 110.09 102.66 09/12/2020 18:38:32 -79.70, 110.12 102.65 1.50 30
7 09/12/2020 19:29:07 79.70, -82.47 77.36 09/12/2020 19:27:59 79.67, -82.51 77.31 3.56 68
8 09/15/2020 00:11:23 79.72,-153.20 78.23 09/15/2020 00:12:15 79.70,-153.29 78.23 2.45 52
9 09/15/2020 01:02:17 -79.70, 14.29 101.76 09/15/2020 01:01:42 -79.71, 14.39 101.76 2.25 35
